www.pogodaiklimat.ru

Погода и климат >> Архив погоды >> Россия >> Краснодарский край >> Анапа


АРХИВ ПОГОДЫ в Анапе

Время (UTC), дата Ветер
(напр.,м/с)
 
Видим.   Явления Облачность Т
(С)
Тd
(С)
f
(%)
Тe
(С)
Тes
(С)
Комфортность P
(гПа)
Po
(гПа)
Тmin
(С)
Tmax
(С)
R
(мм)
R24
(мм)
S
(см)
15 14.06 З 1 20 км ясно +26.0 +21.0 74 +33 +36 очень
душно
1005.0 1001.3 +30.7
18 14.06 СВ 3 10 км ясно +26.9 +15.7 50 +30 +30 душно 1004.2 1000.4
21 14.06 СВ 4 10 км ясно +26.1 +13.0 44 +28 +28 жарко 1004.3 1000.6
00 15.06 СВ 1 10 км ясно +23.6 +18.7 74 +28 +28 душно 1004.1 1000.3
03 15.06 ЮВ 2 20 км 1/0
[Ci fib]
+23.1 +15.9 64 +28 +28 душно 1004.2 1000.4 +21.5
06 15.06 Ю 1 20 км 9/0
[Ci sp]
+26.1 +19.1 65 +31 +41 очень
душно
1005.2 1001.4
09 15.06 Ю 5 10 км 9/0
[Ac trans]
+25.3 +21.1 78 +32 +37 очень
душно
1006.1 1002.4
12 15.06 Ю 3 10 км 9/8 600 м
[Sc Ac trans]
+24.1 +20.5 80 +30 +32 очень
душно
1006.8 1003.0
15 15.06 З 1 10 км {ливн. осадки} 5/3 600 м
[Cu med, cong Ac trans Ci fib]
+25.1 +20.2 74 +31 +33 очень
душно
1005.8 1002.0 +27.4
18 15.06 З 2 10 км в посл. час гроза {ливн. осадки} 9/9 300 м
[Cb cap]
+23.1 +21.4 90 +31 +31 очень
душно
1006.8 1003.0
21 15.06 СВ 1 10 км 5/5 600 м
[Cb cap]
+22.3 +20.5 90 +29 +29 очень
душно
1006.7 1002.9
00 16.06 Ю 5 10 км 4/0
[Ac trans]
+22.3 +20.5 90 +29 +29 очень
душно
1007.2 1003.4
03 16.06 ЮВ 1 10 км {ливн. осадки} 9/9 600 м
[Cb cap]
+22.0 +19.9 88 +28 +28 душно 1007.3 1003.5 +21.6 0.5
06 16.06 Ю 3 10 км слабый ливневой дождь 10/10 300 м
[Cb cap]
+22.6 +20.2 86 +29 +29 очень
душно
1008.8 1005.0
09 16.06 Ю 2 10 км {ливн. осадки} 10/6 600 м
[Cb cap Ac und]
+24.4 +20.7 80 +30 +33 очень
душно
1009.5 1005.8
12 16.06 Ю 2 10 км {ливн. осадки} 10/0
[Ac und]
+23.6 +19.2 76 +28 +33 душно 1009.7 1005.9
15 16.06 З 1 10 км 9/0
[Ac trans Ci fib]
+23.4 +19.5 79 +30 +32 очень
душно
1009.1 1005.3 +24.5 0.3
18 16.06 Ю 1 10 км 10/10 600 м
[Cb cap]
+22.4 +19.9 86 +29 +29 очень
душно
1008.9 1005.1
21 16.06 СВ 2 10 км слабый ливневой дождь 10/10 300 м
[Cb cap]
+22.3 +19.7 85 +28 +28 душно 1008.8 1005.0
00 17.06 СВ 3 10 км {ливн. осадки} 10/10 600 м
[Cb cap]
+21.9 +19.4 86 +27 +27 душно 1007.9 1004.1
03 17.06 С 1 4000 м дымка 10/10 600 м
[Cb cap]
+21.4 +19.7 90 +26 +26 душно 1007.5 1003.7 +21.3 0.3
06 17.06 В 2 10 км 10/8 600 м
[Cb cap Ac und]
+22.1 +19.4 85 +28 +28 душно 1007.6 1003.8
09 17.06 СВ 3 10 км 9/5 600 м
[Cb cap Ac As]
+25.0 +18.9 69 +30 +33 душно 1008.1 1004.4
12 17.06 СВ 3 10 км 9/3 600 м
[Cb cap Ac As]
+24.7 +19.9 75 +30 +34 очень
душно
1007.7 1003.9
15 17.06 СВ 5
{11}
10 км 10/3 600 м
[Cb cap Ac und]
+23.6 +16.0 62 +27 +27 жарко 1007.0 1003.2 +25.1
18 17.06 СВ 3
{10}
10 км 9/3 600 м
[Cb cap Ac und]
+23.6 +13.1 52 +26 +26 жарко 1007.8 1004.0
21 17.06 В 2 10 км 9/9 600 м
[Sc]
+22.4 +13.0 55 +25 +25 комфорт 1007.4 1003.6
00 18.06 СВ 3 10 км 8/4 600 м
[Sc Ac trans]
+20.8 +14.0 65 +24 +24 комфорт 1006.6 1002.8
03 18.06 СВ 4 10 км 8/3 600 м
[Cb cap Ac trans Ci sp]
+20.6 +13.9 65 +23 +24 комфорт 1006.2 1002.3 +20.2
06 18.06 СВ 3 20 км 8/4 600 м
[Sc Ac As]
+23.7 +14.1 55 +26 +29 жарко 1006.3 1002.5
09 18.06 СВ 5
{11}
20 км 8/5 600 м
[Sc Ac As]
+26.5 +15.2 50 +29 +32 жарко 1006.7 1002.9
12 18.06 СВ 4
{10}
20 км 6/0
[Ac As]
+29.2 +14.2 40 +31 +37 жарко 1006.6 1002.9
15 18.06 СВ 3
{10}
20 км 9/0
[Ac trans Ci sp]
+28.6 +14.8 43 +31 +33 жарко 1006.7 1003.0 +29.9
18 18.06 СВ 2 10 км 5/0
[Ac trans Ci sp]
+24.5 +14.5 54 +27 +27 жарко 1007.9 1004.1
21 18.06 СВ 2 10 км 3/0
[Ci sp]
+21.8 +13.9 61 +25 +25 комфорт 1008.6 1004.8
00 19.06 СВ 4 10 км ясно +20.0 +13.0 64 +22 +22 комфорт 1008.7 1004.8
03 19.06 СВ 2 20 км ясно +20.1 +13.2 64 +23 +23 комфорт 1009.9 1006.0 +19.2
06 19.06 В 4 20 км ясно +25.1 +14.0 50 +27 +34 жарко 1010.9 1007.1
09 19.06 Ю 2 20 км ясно +26.6 +17.6 58 +31 +50 душно 1011.4 1007.7
12 19.06 Ю 4 20 км 3/3 600 м
[Cu hum]
+26.4 +19.7 67 +32 +39 очень
душно
1011.7 1007.9
15 19.06 ЮЗ 2 20 км ясно +25.7 +20.0 71 +32 +35 очень
душно
1011.5 1007.8 +28.5
18 19.06 СВ 2 10 км ясно +25.6 +10.0 37 +26 +26 жарко 1011.9 1008.1
21 19.06 СВ 2 10 км ясно +23.1 +9.3 41 +25 +25 комфорт 1012.5 1008.7
00 20.06 СВ 3 10 км ясно +20.3 +11.4 57 +22 +22 комфорт 1013.1 1009.3
03 20.06 СВ 4 20 км ясно +20.1 +11.4 57 +22 +22 комфорт 1013.6 1009.8 +19.3
06 20.06 СВ 3 20 км ясно +28.3 +11.2 35 +29 +37 жарко 1014.2 1010.4
09 20.06 С 5 20 км ясно +32.6 +4.5 17 +30 +40 жарко 1014.2 1010.5
12 20.06 С 3 20 км ясно +33.8 +8.7 21 +32 +44 жарко 1013.5 1009.8
15 20.06 С 3 20 км ясно +31.2 +9.7 26 +31 +33 жарко 1013.5 1009.8 +34.0
18 20.06 СВ 2 10 км ясно +26.6 +9.5 34 +27 +27 жарко 1014.1 1010.3
21 20.06 СВ 3 10 км ясно +23.6 +9.3 40 +24 +24 комфорт 1014.5 1010.7
00 21.06 СВ 3 10 км ясно +22.2 +8.6 42 +24 +24 комфорт 1014.3 1010.4
03 21.06 Ю 2 20 км ясно +23.7 +20.8 84 +30 +30 очень
душно
1014.7 1010.9 +22.0
06 21.06 Ю 4 20 км ясно +25.5 +21.4 78 +32 +39 очень
душно
1014.9 1011.1
09 21.06 Ю 5 20 км 1/1 600 м
[Cu hum]
+26.5 +22.7 80 +35 +44 очень
душно
1014.4 1010.6
12 21.06 ЮЗ 4 20 км 1/1 600 м
[Cu med, cong]
+26.6 +22.7 79 +35 +44 очень
душно
1013.6 1009.9

 

Местоположение метеостанции Анапа (Краснодарский край, Россия): широта 44.88 долгота 37.28 высота над уровнем моря 32 м.

В архиве по умолчанию представлена погода в Анапе за последнюю неделю. Архивные данные за месяц целиком и за предыдущие месяцы, начиная с января 2011 года, Вы можете получить, выбрав интересующий диапазон дат из раскрывающегося списка и нажав кнопку "Ввод!".


*Определитесь, кто Вы:
робот инопланетянин человек

Внимание! Время в таблицах - всемирное. Для получения местного времени необходимо прибавить поправку, которая в Анапе равна 3 ч.

Смотрите также архив погоды в соседних городах и на ближайших метеорологических станциях:

Погода в Новороссийске (Краснодарский край, Россия) (48 км)
Погода в Темрюке (Краснодарский край, Россия) (50 км)
Погода в Крымске (Краснодарский край, Россия) (57 км)
Погода в Тамани (Краснодарский край, Россия) (58 км)
Погода в Геленджике (Краснодарский край, Россия) (72 км)
Погода в Опасном (Крым, Россия) (75 км)
Погода в Славянске-на-Кубани (Краснодарский край, Россия) (80 км)
Погода в Керчи (Крым, Россия) (86 км)
Погода в Джубге (Краснодарский край, Россия) (129 км)
Погода на Мысовом (Крым, Россия) (131 км)

Пояснения к столбцам:

Ветер - указаны скорость ветра в м/с - средняя за 10 мин, порывы в срок и между сроками (в фигурных скобках) и направление, откуда дует ветер: С - северный, СВ - северо-восточный, В - восточный, ЮВ - юго-восточный, Ю - южный, ЮЗ - юго-западный, З - западный, СЗ - северо-западный.
Видимость - горизонтальная дальность видимости в метрах или километрах. При видимости от 1 до 10 км при отсутствии осадков обычно наблюдается дымка, при ухудшении видимости до 1 км и менее - туман. В сухую погоду видимость может ухудшаться дымом, пылью или мглою.
Явления - указаны атмосферные явления, наблюдавшиеся в срок или в последний час перед сроком; фигурными скобками обозначены явления, наблюдавшиеся между сроками (за 1-3 часа до срока); квадратными скобками обозначены град или гололедные отложения с указанием их диаметра в мм.
Облачность - указаны через наклонную черту общая и нижняя облачность в баллах и высота нижней границы облаков в метрах; квадратными скобками обозначены формы облаков: Ci - перистые, Cs - перисто-слоистые, Cc - перисто-кучевые, Ac - высококучевые, As - высокослоистые, Sc - слоисто-кучевые, Ns - слоисто-дождевые, Cu - кучевые, Cb - кучево-дождевые. Подробнее классификацию облаков см. в Атласе облаков (PDF).
T - Температура воздуха - температура, измеренная на высоте 2 м над землей.
Td - Температура точки росы - температура, при понижении до которой содержащийся в воздухе водяной пар достигнет насыщения.
f - Относительная влажность воздуха - влажноcть воздуха, измеренная на высоте 2 м над землей.
Te - Эффективная температура - температура, которую ощущает одетый по сезону человек в тени. Характеристика душности погоды. При расчете учитывается влияние влажности воздуха и скорости ветра на теплоощущения человека.
Tes - Эффективная температура на солнце - температура, которую ощущает человек, с поправкой на солнечный нагрев. Характеристика знойности погоды. Зависит от высоты солнца над горизонтом, облачности и скорости ветра. Ночью, в пасмурную погоду, а также при ветре 12 м/с и более поправка равна нулю.
P - Атмосферное давление - приведенное к уровню моря атмосферное давление.
Po - Атмосферное давление - измеренное на уровне метеостанции атмосферное давление.
Tmin - Минимальная температура - минимум температуры воздуха на высоте 2 м над землей.
Tmax - Максимальная температура - максимум температуры воздуха на высоте 2 м над землей.
R - Количество осадков - Количество выпавших осадков за период времени, мм. При наведении курсора мыши на число - период времени, за который выпало указанное количество осадков.
R24 - Количество осадков - Количество выпавших осадков за 24 часа, мм.
S - Снежный покров - Высота снежного покрова, см. При наведении курсора мыши на число - состояние снежного покрова и степень покрытия местности в баллах.